Track STARLINK-1302 now! 10-day predictions STARLINK-1302 is classified as:
1 45375U 20019R 21021.47172638 .00023712 00000-0 16326-2 0 9995 2 45375 53.0020 295.8225 0000349 228.5036 131.5922 15.05774354 47398